THOR ABLESTAR DEB, 13511

Orbit data source: Space-Track

THOR ABLESTAR DEB, 13511 is space debris in LEO originally from a launch on Thu, 29 Jun 1961 UTC launched from the Air Force Eastern Test Range (AFETR). Debris objects in space refer to the collection of defunct objects orbiting the Earth. Examples of debris include non-operational satellites, rocket bodies, and fragments generated from explosions, collisions, or faulty payload assembly.

Loading next visibility...
Identifier
13511, 1961-015KU
Orbit
LEO
Country
Flag of USUS
Related business
Manufacturer
Unknown
Mission
Spacecraft
Bus & Motor
Unknown
Mass
Unknown
Launch date (UTC)
1961-06-29 (65 years ago)
Launch vehicle
Unknown
Launch site
Air Force Eastern Test Range (AFETR)
Object type
Payload
Rocket body
Debris
Shape & HBR
Unknown shape, 0.1 m
Radar Cross Section
Medium (>0.1 m² and <1 m²)

Expand to show TLE details & history
Last TLE update: 11 hours ago

TLE from 11 hours ago
0 THOR ABLESTAR DEB
1 13511U 61015KU  26235.94249285  .00000142  00000-0  24884-3 0  9991
2 13511  65.8411  56.3294 0114860 144.6288   6.4478 13.67862067300367
Epoch: 2026-08-23T22:37Z
TLE epoch observation values (Epoch: 2026-08-23T22:37:11.382Z)
Latitude
26.10237°
Longitude
-87.82707°
Altitude
925.216 km
Speed
7.434 km/s
True Right ascension
14h 54m 48s
True Declination
25° 58' 11"
Sunlit
Object was in daylight at epoch
Visualization orbit readout
Latitude
Unknown
Longitude
Unknown
Altitude
Unknown
Speed
Unknown
Apparent Right ascension
Unknown
Apparent Declination
Unknown
Sunlit
N/A
Visualization observer readout
Local Sidereal Time
00:48:39
Azimuth
Unknown
Elevation
Unknown
Doppler factor
Unknown
Orbital elements
Apogee altitude
1,090.589 km
Perigee altitude
920.966 km
Semi-major axis
7,383.915 km
Eccentricity
0.01149
Inclination
65.8411°
RAAN
56.3294°
Arg. of periapsis
144.6288°
True anomaly
6.59774°
Mean anomaly
6.4478°
Eccentric anomaly
6.52256°
Mean motion
3.42069 °/min
Orbital period
105.24 mins
BSTAR
0.00024884
Loading maneuver chart data...
Computing Atmospheric mass density...
Loading historical data...
Loading historical data...
Loading historical data...
Loading historical data...
Loading historical data...
Loading historical data...
Loading historical data...

Documentation

Showing up to 5 results
|